STARLINK-2486 (48143 NORAD) Tracking and Keplerian Element Data

This shows tracking and keplerian element data for the satellite.

Feedback or suggestion? Click here.




ElementValue
Catalog48143
NameSTARLINK-2486
Epoch Orbit198
Epoch Day173.91668981
Epoch Year2021
RAAN321.605
Inclination53.0464
Eccentricity0.0003106
Argument of Perigee18.973
Mean Anonmoly29.7503
Mean Motion15.73007065
Decay Rate0.00347833
L11 48143U 21027BD 21173.91668981 .00347833 00000-0 24007-2 0 9997
L22 48143 53.0464 321.6050 0003106 18.9730 29.7503 15.73007065 1987

Live tracking and technical data element details for STARLINK-2486 (NORAD 48143). STARLINK-2486 can be tracked NOW for your location showing map with azimuth and elevation plus other details from your city location.

Track the satellite on the map from your city or location and see movement details for azimuth, elevation, latitude, longitude, range, height, and movement on the map or in text.







IsCatalogInMostPopularTable: catalog: 48143, numindb: 33
Update: records affected: 1



GetName: 48143 STARLINK-2486

Hit Count: updated at: Thu, 24 Jun 2021 04:07:43 GMT